Terminal Aerodrome Forecast
Issued by NWS Indianapolis, IN

Current Version | Previous Version | Text Only | Print | Product List | Glossary On
Versions: 1 2 3 4 5 6 7 8 9 10 11 12 13 14 15 16 17 18 19 20 21 22 23
618
FTUS43 KIND 261128
TAFIND
TAF
KIND 261128Z 2612/2718 26004KT P6SM FEW250
     FM262200 28011KT P6SM VCSH BKN090
     FM270300 29005KT P6SM BKN120
     FM271100 VRB03KT 3SM BR FEW130
     FM271200 VRB03KT P6SM FEW120=

USA.gov is the U.S. government's official web portal to all federal, state and local government web resources and services.